Terminal Aerodrome Forecast
Issued by NWS Norman, OK

Home | Current Version | Previous Version | Text Only | Print | Product List | Glossary On
Versions: 1 2 3 4 5 6 7 8 9 10 11 12 13 14 15 16 17 18 19 20 21 22 23 24 25 26
000
FTUS44 KOUN 202325
TAFSPS
TAF
KSPS 202325Z 2100/2124 16012G20KT P6SM FEW100
     FM211400 20013G26KT P6SM FEW070=

USA.gov is the U.S. government's official web portal to all federal, state and local government web resources and services.